QTR942 OTHH-WSSS

Flight info

Callsign QTR942
Flight time 7h 29m
Altitude 35000
Route KUPRO N300 NOLSU P307 TONVO/N0483F390 P307 VAXIM/N0483F410 P307 PARAR N571 GUNIP R467 VKL A464 ARAMA ARAMA1A
Aircraft A359/H-SDE2E3GHIJ1J3J4J5LM1ORWXY/LB1D1

Departure

Time 2026-05-06 19:45
Airport Hamad International Airport (OTHH)

Arrival

Time 2026-05-07 03:14
Airport Singapore Changi Airport (WSSS)
Time Latitude Longitude Altitude Speed Heading
2026-05-06 19:27 25.26477 51.61320 29 ft 0 kts 248°
2026-05-06 19:35 25.26482 51.61335 28 ft 2 kts 248°
2026-05-06 19:35 25.26489 51.61352 27 ft 2 kts 248°
2026-05-06 19:35 25.26495 51.61369 27 ft 2 kts 249°
2026-05-06 19:35 25.26502 51.61385 26 ft 2 kts 222°
2026-05-06 19:36 25.26516 51.61394 25 ft 2 kts 194°
2026-05-06 19:36 25.26532 51.61397 26 ft 2 kts 180°
2026-05-06 19:36 25.26549 51.61396 28 ft 2 kts 171°
2026-05-06 19:36 25.26560 51.61393 27 ft 1 kts 164°
2026-05-06 19:37 25.26562 51.61392 27 ft 0 kts 163°
2026-05-06 19:38 25.26561 51.61393 28 ft 1 kts 161°
2026-05-06 19:38 25.26533 51.61405 28 ft 8 kts 159°
2026-05-06 19:39 25.26454 51.61437 28 ft 16 kts 159°
2026-05-06 19:39 25.26398 51.61466 28 ft 1 kts 134°
2026-05-06 19:39 25.26396 51.61472 28 ft 1 kts 115°
2026-05-06 19:39 25.26392 51.61495 28 ft 6 kts 100°
2026-05-06 19:40 25.26401 51.61558 28 ft 11 kts 77°
2026-05-06 19:40 25.26438 51.61652 28 ft 16 kts 67°
2026-05-06 19:40 25.26485 51.61778 28 ft 18 kts 68°
2026-05-06 19:40 25.26523 51.61915 28 ft 17 kts 96°
2026-05-06 19:41 25.26454 51.61983 28 ft 13 kts 158°
2026-05-06 19:41 25.26362 51.62024 29 ft 15 kts 159°
2026-05-06 19:41 25.26258 51.62069 29 ft 17 kts 158°
2026-05-06 19:41 25.26141 51.62121 29 ft 19 kts 158°
2026-05-06 19:42 25.26013 51.62178 29 ft 21 kts 158°
2026-05-06 19:42 25.25872 51.62240 29 ft 23 kts 158°
2026-05-06 19:42 25.25720 51.62307 29 ft 24 kts 158°
2026-05-06 19:42 25.25570 51.62373 28 ft 13 kts 158°
2026-05-06 19:43 25.25500 51.62408 28 ft 13 kts 145°
2026-05-06 19:43 25.25484 51.62491 28 ft 12 kts 73°
2026-05-06 19:43 25.25517 51.62585 29 ft 14 kts 63°
2026-05-06 19:43 25.25588 51.62656 29 ft 14 kts 20°
2026-05-06 19:44 25.25676 51.62639 29 ft 14 kts 338°
2026-05-06 19:44 25.25788 51.62589 28 ft 32 kts 338°
2026-05-06 19:44 25.26219 51.62399 30 ft 99 kts 338°
2026-05-06 19:44 25.27036 51.62038 26 ft 155 kts 338°
2026-05-06 19:45 25.28145 51.61565 434 ft 171 kts 341°
2026-05-06 19:45 25.29204 51.61097 1314 ft 166 kts 337°
2026-05-06 19:45 25.30357 51.60571 1699 ft 190 kts 338°
2026-05-06 19:45 25.31638 51.59996 2060 ft 205 kts 338°
2026-05-06 19:46 25.32987 51.59396 2618 ft 213 kts 339°
2026-05-06 19:46 25.34465 51.59173 3058 ft 223 kts 13°
2026-05-06 19:46 25.35772 51.60050 3627 ft 225 kts 52°
2026-05-06 19:46 25.36264 51.61660 4316 ft 226 kts 91°
2026-05-06 19:47 25.36038 51.63379 4979 ft 228 kts 97°
2026-05-06 19:47 25.35956 51.65136 5578 ft 230 kts 85°
2026-05-06 19:47 25.36167 51.66899 6206 ft 232 kts 77°
2026-05-06 19:47 25.36569 51.68635 6819 ft 235 kts 72°
2026-05-06 19:48 25.36833 51.70418 7416 ft 240 kts 90°
2026-05-06 19:48 25.36578 51.72304 7818 ft 257 kts 101°
2026-05-06 19:48 25.36147 51.74276 8097 ft 278 kts 102°
2026-05-06 19:48 25.35684 51.76393 8608 ft 287 kts 102°
2026-05-06 19:49 25.35227 51.78567 9287 ft 292 kts 101°
2026-05-06 19:49 25.34777 51.80757 9987 ft 295 kts 101°
2026-05-06 19:49 25.34321 51.83014 10484 ft 308 kts 101°
2026-05-06 19:49 25.33844 51.85398 10789 ft 326 kts 101°
2026-05-06 19:50 25.33346 51.87911 11111 ft 342 kts 101°
2026-05-06 19:50 25.32829 51.90502 11617 ft 350 kts 101°
2026-05-06 19:50 25.32298 51.93147 12260 ft 353 kts 101°
2026-05-06 19:50 25.31764 51.95808 12939 ft 356 kts 100°
2026-05-06 19:51 25.31229 51.98490 13629 ft 359 kts 101°
2026-05-06 19:51 25.30689 52.01193 14217 ft 363 kts 101°
2026-05-06 19:51 25.30141 52.03935 14764 ft 367 kts 101°
2026-05-06 19:51 25.29584 52.06712 15299 ft 372 kts 101°
2026-05-06 19:52 25.28983 52.09504 15843 ft 377 kts 105°
2026-05-06 19:52 25.28176 52.12274 16399 ft 381 kts 108°
2026-05-06 19:52 25.27301 52.15049 16970 ft 385 kts 109°
2026-05-06 19:52 25.26409 52.17856 17537 ft 388 kts 109°
2026-05-06 19:53 25.25512 52.20686 18122 ft 392 kts 109°
2026-05-06 19:53 25.24608 52.23541 18608 ft 396 kts 109°
2026-05-06 19:53 25.23694 52.26431 19089 ft 400 kts 109°
2026-05-06 19:53 25.22772 52.29350 19597 ft 405 kts 110°
2026-05-06 19:54 25.21840 52.32296 20095 ft 409 kts 110°
2026-05-06 19:54 25.20900 52.35265 20606 ft 413 kts 110°
2026-05-06 19:54 25.20348 52.37010 20908 ft 416 kts 110°
2026-05-06 19:54 25.19388 52.40040 21413 ft 420 kts 110°
2026-05-06 19:55 25.18427 52.43092 21941 ft 424 kts 110°
2026-05-06 19:55 25.17450 52.46172 22439 ft 427 kts 110°
2026-05-06 19:55 25.16462 52.49280 22983 ft 431 kts 110°
2026-05-06 19:55 25.15465 52.52417 23487 ft 435 kts 110°
2026-05-06 19:56 25.14461 52.55576 23938 ft 438 kts 110°
2026-05-06 19:56 25.13402 52.58725 24379 ft 441 kts 114°
2026-05-06 19:56 25.12149 52.61823 24824 ft 444 kts 117°
2026-05-06 19:56 25.10790 52.64902 25266 ft 448 kts 118°
2026-05-06 19:57 25.09377 52.67973 25692 ft 451 kts 119°
2026-05-06 19:57 25.07939 52.71062 26117 ft 455 kts 119°
2026-05-06 19:57 25.06505 52.74200 26573 ft 459 kts 117°
2026-05-06 19:57 25.05364 52.77515 26991 ft 465 kts 109°
2026-05-06 19:58 25.04452 52.80958 27399 ft 470 kts 107°
2026-05-06 19:58 25.03618 52.84451 27813 ft 474 kts 106°
2026-05-06 19:58 25.02817 52.87999 28227 ft 478 kts 106°
2026-05-06 19:58 25.02029 52.91570 28627 ft 482 kts 106°
2026-05-06 19:59 25.01233 52.95177 29019 ft 486 kts 106°
2026-05-06 19:59 25.00423 52.98817 29415 ft 490 kts 106°
2026-05-06 19:59 24.99602 53.02469 29793 ft 493 kts 107°
2026-05-06 19:59 24.98768 53.06149 30119 ft 497 kts 107°
2026-05-06 20:00 24.97924 53.09863 30430 ft 501 kts 107°
2026-05-06 20:00 24.97068 53.13592 30759 ft 503 kts 107°
2026-05-06 20:00 24.96203 53.17343 31079 ft 506 kts 107°
2026-05-06 20:00 24.95330 53.21114 31389 ft 509 kts 107°
2026-05-06 20:01 24.94454 53.24901 31698 ft 512 kts 107°
2026-05-06 20:01 24.93569 53.28723 32009 ft 515 kts 107°
2026-05-06 20:01 24.92682 53.32555 32295 ft 518 kts 107°
2026-05-06 20:01 24.91790 53.36406 32594 ft 520 kts 107°
2026-05-06 20:02 24.90892 53.40282 32875 ft 523 kts 107°
2026-05-06 20:02 24.89977 53.44163 33144 ft 525 kts 108°
2026-05-06 20:02 24.88964 53.48038 33411 ft 527 kts 109°
2026-05-06 20:02 24.87886 53.51906 33671 ft 529 kts 110°
2026-05-06 20:03 24.86785 53.55782 33913 ft 532 kts 110°
2026-05-06 20:03 24.85681 53.59679 34139 ft 534 kts 110°
2026-05-06 20:03 24.84582 53.63593 34330 ft 536 kts 109°
2026-05-06 20:03 24.83504 53.67469 34564 ft 537 kts 109°
2026-05-06 20:04 24.82419 53.71399 34877 ft 536 kts 109°
2026-05-06 20:04 24.81339 53.75327 35203 ft 535 kts 109°
2026-05-06 20:04 24.80264 53.79239 35514 ft 535 kts 109°
2026-05-06 20:04 24.79187 53.83156 35813 ft 534 kts 109°
2026-05-06 20:05 24.78110 53.87064 36108 ft 534 kts 109°
2026-05-06 20:05 24.77033 53.90968 36385 ft 533 kts 109°
2026-05-06 20:05 24.76104 53.94923 36633 ft 536 kts 103°
2026-05-06 20:05 24.75678 53.99002 36901 ft 538 kts 93°
2026-05-06 20:06 24.75863 54.03109 37164 ft 540 kts 82°
2026-05-06 20:06 24.76658 54.07143 37427 ft 539 kts 75°
2026-05-06 20:06 24.77699 54.11116 37679 ft 539 kts 73°
2026-05-06 20:06 24.78819 54.15042 37937 ft 539 kts 72°
2026-05-06 20:07 24.79975 54.18969 38194 ft 539 kts 72°
2026-05-06 20:07 24.81133 54.22890 38435 ft 538 kts 72°
2026-05-06 20:07 24.82282 54.26819 38653 ft 538 kts 72°
2026-05-06 20:07 24.83413 54.30732 38860 ft 537 kts 72°
2026-05-06 20:08 24.84534 54.34649 39079 ft 536 kts 72°
2026-05-06 20:08 24.85645 54.38561 39295 ft 535 kts 73°
2026-05-06 20:08 24.86753 54.42473 39502 ft 534 kts 73°
2026-05-06 20:08 24.87854 54.46373 39704 ft 533 kts 73°
2026-05-06 20:09 24.88954 54.50273 39902 ft 532 kts 73°
2026-05-06 20:09 24.90050 54.54162 40082 ft 532 kts 73°
2026-05-06 20:09 24.91146 54.58052 40267 ft 531 kts 73°
2026-05-06 20:09 24.92237 54.61928 40431 ft 530 kts 73°
2026-05-06 20:10 24.93210 54.65843 40595 ft 529 kts 78°
2026-05-06 20:10 24.94023 54.69805 40756 ft 529 kts 78°
2026-05-06 20:10 24.95550 54.77734 40796 ft 529 kts 79°
2026-05-06 20:11 24.97035 54.85667 40798 ft 529 kts 79°
2026-05-06 20:11 24.98522 54.93599 40796 ft 529 kts 79°
2026-05-06 20:12 25.00012 55.01537 40799 ft 528 kts 79°
2026-05-06 20:12 25.01499 55.09467 40803 ft 528 kts 79°
2026-05-06 20:13 25.02858 55.16727 40802 ft 528 kts 79°
2026-05-06 20:13 25.04342 55.24654 40801 ft 528 kts 79°
2026-05-06 20:14 25.05823 55.32580 40805 ft 528 kts 79°
2026-05-06 20:14 25.07050 55.39173 40786 ft 528 kts 79°
2026-05-06 20:15 25.08523 55.47106 40786 ft 528 kts 79°
2026-05-06 20:15 25.10239 55.56372 40803 ft 528 kts 79°
2026-05-06 20:16 25.11458 55.62971 40803 ft 528 kts 79°
2026-05-06 20:16 25.12912 55.70907 40800 ft 528 kts 79°
2026-05-06 20:17 25.14363 55.78822 40802 ft 528 kts 78°
2026-05-06 20:17 25.15961 55.86718 40804 ft 528 kts 77°
2026-05-06 20:18 25.17622 55.94616 40803 ft 528 kts 77°
2026-05-06 20:18 25.19260 56.02514 40804 ft 528 kts 77°
2026-05-06 20:19 25.20450 56.10481 40803 ft 526 kts 90°
2026-05-06 20:19 25.19503 56.18397 40807 ft 519 kts 109°
2026-05-06 20:20 25.17240 56.25954 40803 ft 519 kts 112°
2026-05-06 20:20 25.14779 56.33443 40804 ft 519 kts 112°
2026-05-06 20:21 25.12328 56.40927 40804 ft 519 kts 112°
2026-05-06 20:21 25.09906 56.48423 40804 ft 518 kts 112°
2026-05-06 20:22 25.07485 56.55907 40796 ft 518 kts 113°
2026-05-06 20:22 25.04795 56.63264 40790 ft 516 kts 116°
2026-05-06 20:23 25.02004 56.70563 40776 ft 516 kts 115°
2026-05-06 20:23 24.99248 56.77863 40779 ft 516 kts 115°
2026-05-06 20:24 24.96518 56.85185 40783 ft 516 kts 115°
2026-05-06 20:24 24.93797 56.92499 40780 ft 516 kts 115°
2026-05-06 20:25 24.91075 56.99804 40783 ft 515 kts 115°
2026-05-06 20:25 24.88368 57.07049 40783 ft 515 kts 115°
2026-05-06 20:26 24.85635 57.14348 40781 ft 515 kts 115°
2026-05-06 20:26 24.82906 57.21626 40783 ft 515 kts 115°
2026-05-06 20:27 24.80172 57.28905 40779 ft 514 kts 115°
2026-05-06 20:27 24.77434 57.36179 40782 ft 514 kts 115°
2026-05-06 20:28 24.74695 57.43445 40780 ft 514 kts 115°
2026-05-06 20:28 24.71954 57.50703 40783 ft 513 kts 115°
2026-05-06 20:29 24.69215 57.57945 40781 ft 513 kts 115°
2026-05-06 20:29 24.66471 57.65187 40782 ft 513 kts 115°
2026-05-06 20:30 24.62349 57.76050 40779 ft 513 kts 115°
2026-05-06 20:31 24.59618 57.83230 40780 ft 513 kts 115°
2026-05-06 20:31 24.56863 57.90451 40781 ft 512 kts 115°
2026-05-06 20:32 24.54103 57.97674 40777 ft 512 kts 115°
2026-05-06 20:32 24.51347 58.04879 40777 ft 512 kts 115°
2026-05-06 20:33 24.48584 58.12092 40771 ft 512 kts 115°
2026-05-06 20:33 24.45821 58.19290 40772 ft 512 kts 115°
2026-05-06 20:34 24.43052 58.26493 40769 ft 512 kts 115°
2026-05-06 20:34 24.40285 58.33681 40765 ft 512 kts 115°
2026-05-06 20:35 24.37513 58.40866 40767 ft 511 kts 115°
2026-05-06 20:35 24.34738 58.48049 40765 ft 511 kts 115°
2026-05-06 20:36 24.31965 58.55219 40762 ft 511 kts 115°
2026-05-06 20:36 24.29189 58.62391 40759 ft 511 kts 116°
2026-05-06 20:37 24.26408 58.69547 40760 ft 511 kts 116°
2026-05-06 20:37 24.23623 58.76705 40760 ft 510 kts 116°
2026-05-06 20:38 24.20840 58.83848 40761 ft 510 kts 116°
2026-05-06 20:38 24.18050 58.91000 40760 ft 510 kts 116°
2026-05-06 20:39 24.15262 58.98135 40761 ft 510 kts 116°
2026-05-06 20:39 24.12468 59.05275 40761 ft 510 kts 116°
2026-05-06 20:40 24.09673 59.12403 40763 ft 510 kts 116°
2026-05-06 20:40 24.06894 59.19482 40763 ft 509 kts 116°
2026-05-06 20:41 24.04095 59.26598 40761 ft 509 kts 116°
2026-05-06 20:41 24.01292 59.33714 40764 ft 509 kts 116°
2026-05-06 20:42 23.98588 59.40874 40765 ft 510 kts 114°
2026-05-06 20:42 23.95961 59.48065 40763 ft 509 kts 114°
2026-05-06 20:43 23.93318 59.55255 40764 ft 509 kts 114°
2026-05-06 20:43 23.90659 59.62425 40780 ft 509 kts 114°
2026-05-06 20:44 23.87992 59.69582 40765 ft 509 kts 114°
2026-05-06 20:44 23.85320 59.76741 40766 ft 509 kts 114°
2026-05-06 20:45 23.82648 59.83906 40759 ft 509 kts 114°
2026-05-06 20:45 23.79977 59.91051 40773 ft 509 kts 114°
2026-05-06 20:46 23.77296 59.98206 40760 ft 508 kts 114°
2026-05-06 20:46 23.74616 60.05349 40762 ft 508 kts 114°
2026-05-06 20:47 23.71936 60.12484 40776 ft 508 kts 114°
2026-05-06 20:47 23.69251 60.19621 40761 ft 508 kts 114°
2026-05-06 20:48 23.66567 60.26742 40774 ft 508 kts 114°
2026-05-06 20:48 23.63876 60.33872 40772 ft 508 kts 114°
2026-05-06 20:49 23.61182 60.40997 40759 ft 508 kts 114°
2026-05-06 20:49 23.58486 60.48115 40774 ft 508 kts 114°
2026-05-06 20:50 23.55790 60.55224 40766 ft 508 kts 114°
2026-05-06 20:50 23.53087 60.62339 40777 ft 508 kts 114°
2026-05-06 20:51 23.50380 60.69454 40772 ft 508 kts 114°
2026-05-06 20:51 23.47675 60.76552 40774 ft 508 kts 114°
2026-05-06 20:52 23.44961 60.83662 40775 ft 508 kts 114°
2026-05-06 20:52 23.42246 60.90763 40776 ft 508 kts 114°
2026-05-06 20:53 23.39525 60.97866 40764 ft 508 kts 114°
2026-05-06 20:53 23.36821 61.04916 40773 ft 508 kts 114°
2026-05-06 20:54 23.34096 61.12010 40784 ft 508 kts 114°
2026-05-06 20:54 23.31365 61.19108 40779 ft 508 kts 114°
2026-05-06 20:55 23.28397 61.26080 40777 ft 508 kts 118°
2026-05-06 20:55 23.25242 61.32952 40764 ft 508 kts 118°
2026-05-06 20:56 23.22111 61.39833 40781 ft 508 kts 117°
2026-05-06 20:56 23.19017 61.46735 40785 ft 508 kts 117°
2026-05-06 20:57 23.15935 61.53642 40782 ft 508 kts 117°
2026-05-06 20:57 23.12852 61.60543 40776 ft 508 kts 117°
2026-05-06 20:58 23.09761 61.67448 40783 ft 508 kts 117°
2026-05-06 20:58 23.06668 61.74344 40781 ft 508 kts 117°
2026-05-06 20:59 23.03580 61.81232 40775 ft 507 kts 117°
2026-05-06 20:59 23.00484 61.88108 40784 ft 507 kts 117°
2026-05-06 21:00 22.97382 61.94989 40781 ft 507 kts 117°
2026-05-06 21:00 22.94284 62.01856 40779 ft 507 kts 117°
2026-05-06 21:01 22.91181 62.08726 40780 ft 507 kts 117°
2026-05-06 21:01 22.88607 62.14418 40782 ft 507 kts 117°
2026-05-06 21:02 22.85503 62.21272 40785 ft 507 kts 117°
2026-05-06 21:02 22.82392 62.28134 40782 ft 507 kts 117°
2026-05-06 21:03 22.79280 62.34986 40782 ft 507 kts 117°
2026-05-06 21:03 22.76161 62.41845 40773 ft 507 kts 117°
2026-05-06 21:04 22.73037 62.48705 40782 ft 507 kts 117°
2026-05-06 21:04 22.69916 62.55550 40784 ft 507 kts 117°
2026-05-06 21:05 22.66788 62.62400 40787 ft 507 kts 117°
2026-05-06 21:05 22.63663 62.69233 40784 ft 507 kts 117°
2026-05-06 21:06 22.60532 62.76070 40783 ft 507 kts 117°
2026-05-06 21:06 22.57398 62.82905 40785 ft 507 kts 117°
2026-05-06 21:07 22.54263 62.89734 40788 ft 507 kts 117°
2026-05-06 21:07 22.51125 62.96558 40789 ft 507 kts 117°
2026-05-06 21:08 22.47988 63.03371 40779 ft 507 kts 117°
2026-05-06 21:08 22.44840 63.10199 40791 ft 507 kts 117°
2026-05-06 21:09 22.41725 63.17032 40785 ft 507 kts 117°
2026-05-06 21:09 22.38672 63.23898 40788 ft 507 kts 117°
2026-05-06 21:10 22.35638 63.30722 40778 ft 507 kts 117°
2026-05-06 21:10 22.32571 63.37579 40785 ft 507 kts 117°
2026-05-06 21:11 22.29496 63.44427 40790 ft 507 kts 117°
2026-05-06 21:11 22.26414 63.51282 40782 ft 507 kts 117°
2026-05-06 21:12 22.23332 63.58127 40789 ft 507 kts 117°
2026-05-06 21:12 22.20249 63.64968 40783 ft 507 kts 117°
2026-05-06 21:13 22.17159 63.71813 40790 ft 507 kts 117°
2026-05-06 21:13 22.14073 63.78641 40796 ft 507 kts 117°
2026-05-06 21:14 22.10978 63.85480 40795 ft 507 kts 117°
2026-05-06 21:14 22.07882 63.92311 40797 ft 507 kts 117°
2026-05-06 21:15 22.04780 63.99145 40793 ft 507 kts 117°
2026-05-06 21:15 22.01679 64.05970 40791 ft 507 kts 117°
2026-05-06 21:16 21.98572 64.12797 40791 ft 507 kts 117°
2026-05-06 21:16 21.95462 64.19622 40797 ft 508 kts 117°
2026-05-06 21:17 21.92344 64.26457 40793 ft 508 kts 117°
2026-05-06 21:17 21.89228 64.33277 40798 ft 508 kts 117°
2026-05-06 21:18 21.86106 64.40100 40794 ft 508 kts 117°
2026-05-06 21:18 21.82983 64.46918 40796 ft 508 kts 117°
2026-05-06 21:19 21.79858 64.53730 40803 ft 508 kts 117°
2026-05-06 21:19 21.76727 64.60546 40803 ft 508 kts 117°
2026-05-06 21:20 21.73596 64.67354 40785 ft 508 kts 117°
2026-05-06 21:20 21.70460 64.74163 40801 ft 508 kts 117°
2026-05-06 21:21 21.67322 64.80967 40792 ft 508 kts 117°
2026-05-06 21:21 21.64183 64.87765 40784 ft 508 kts 117°
2026-05-06 21:22 21.61039 64.94565 40801 ft 508 kts 117°
2026-05-06 21:22 21.57891 65.01365 40804 ft 508 kts 117°
2026-05-06 21:23 21.54741 65.08159 40804 ft 508 kts 117°
2026-05-06 21:23 21.51592 65.14942 40786 ft 508 kts 117°
2026-05-06 21:24 21.48437 65.21731 40808 ft 508 kts 117°
2026-05-06 21:24 21.45284 65.28506 40805 ft 507 kts 117°
2026-05-06 21:25 21.42126 65.35281 40805 ft 507 kts 117°
2026-05-06 21:25 21.38968 65.42050 40792 ft 507 kts 117°
2026-05-06 21:26 21.35827 65.48772 40796 ft 507 kts 117°
2026-05-06 21:26 21.32663 65.55536 40806 ft 507 kts 117°
2026-05-06 21:27 21.29498 65.62293 40799 ft 507 kts 117°
2026-05-06 21:27 21.26327 65.69053 40790 ft 507 kts 117°
2026-05-06 21:28 21.23157 65.75803 40795 ft 507 kts 117°
2026-05-06 21:28 21.19980 65.82560 40806 ft 507 kts 117°
2026-05-06 21:29 21.16806 65.89301 40805 ft 507 kts 117°
2026-05-06 21:29 21.13627 65.96045 40788 ft 507 kts 118°
2026-05-06 21:30 21.10454 66.02788 40800 ft 507 kts 117°
2026-05-06 21:30 21.07373 66.09570 40799 ft 507 kts 116°
2026-05-06 21:31 21.04315 66.16365 40803 ft 507 kts 116°
2026-05-06 21:31 21.01240 66.23152 40804 ft 507 kts 117°
2026-05-06 21:32 20.98153 66.29931 40805 ft 507 kts 117°
2026-05-06 21:32 20.93534 66.40047 40797 ft 507 kts 117°
2026-05-06 21:33 20.90439 66.46815 40793 ft 507 kts 117°
2026-05-06 21:33 20.87343 66.53580 40800 ft 506 kts 117°
2026-05-06 21:34 20.84246 66.60337 40804 ft 506 kts 117°
2026-05-06 21:34 20.81145 66.67096 40799 ft 506 kts 117°
2026-05-06 21:35 20.78042 66.73849 40785 ft 506 kts 117°
2026-05-06 21:35 20.74941 66.80590 40792 ft 506 kts 117°
2026-05-06 21:36 20.71836 66.87331 40796 ft 506 kts 117°
2026-05-06 21:36 20.68726 66.94072 40787 ft 506 kts 117°
2026-05-06 21:37 20.65616 67.00809 40784 ft 506 kts 117°
2026-05-06 21:37 20.62502 67.07543 40798 ft 506 kts 117°
2026-05-06 21:38 20.59385 67.14275 40795 ft 506 kts 117°
2026-05-06 21:38 20.56264 67.21008 40791 ft 506 kts 117°
2026-05-06 21:39 20.53145 67.27730 40784 ft 506 kts 117°
2026-05-06 21:39 20.50022 67.34451 40802 ft 506 kts 117°
2026-05-06 21:40 20.46894 67.41175 40781 ft 505 kts 117°
2026-05-06 21:40 20.43768 67.47885 40788 ft 505 kts 117°
2026-05-06 21:41 20.40638 67.54597 40787 ft 505 kts 117°
2026-05-06 21:41 20.37529 67.61254 40785 ft 505 kts 117°
2026-05-06 21:42 20.34398 67.67952 40798 ft 505 kts 117°
2026-05-06 21:42 20.31262 67.74651 40799 ft 505 kts 117°
2026-05-06 21:43 20.28127 67.81339 40780 ft 505 kts 117°
2026-05-06 21:43 20.24987 67.88031 40784 ft 505 kts 117°
2026-05-06 21:44 20.21850 67.94709 40803 ft 505 kts 117°
2026-05-06 21:44 20.18705 68.01394 40805 ft 505 kts 117°
2026-05-06 21:45 20.15559 68.08075 40781 ft 505 kts 117°
2026-05-06 21:45 20.12413 68.14747 40787 ft 505 kts 117°
2026-05-06 21:46 20.09265 68.21416 40804 ft 505 kts 117°
2026-05-06 21:46 20.06112 68.28087 40788 ft 505 kts 117°
2026-05-06 21:47 20.02958 68.34751 40786 ft 505 kts 117°
2026-05-06 21:47 19.99798 68.41421 40787 ft 504 kts 117°
2026-05-06 21:48 19.96642 68.48075 40794 ft 504 kts 117°
2026-05-06 21:48 19.94018 68.53602 40786 ft 504 kts 117°
2026-05-06 21:49 19.90855 68.60255 40792 ft 504 kts 117°
2026-05-06 21:49 19.87696 68.66892 40800 ft 504 kts 118°
2026-05-06 21:50 19.84533 68.73531 40802 ft 503 kts 118°
2026-05-06 21:50 19.81372 68.80155 40788 ft 503 kts 118°
2026-05-06 21:51 19.78207 68.86783 40794 ft 503 kts 118°
2026-05-06 21:51 19.75046 68.93394 40790 ft 502 kts 118°
2026-05-06 21:52 19.71879 69.00009 40779 ft 502 kts 118°
2026-05-06 21:52 19.68715 69.06610 40780 ft 502 kts 118°
2026-05-06 21:53 19.65546 69.13215 40793 ft 502 kts 118°
2026-05-06 21:53 19.62375 69.19815 40794 ft 502 kts 118°
2026-05-06 21:54 19.59207 69.26402 40792 ft 502 kts 118°
2026-05-06 21:54 19.56035 69.32992 40773 ft 502 kts 118°
2026-05-06 21:55 19.52897 69.39600 40783 ft 502 kts 117°
2026-05-06 21:55 19.49868 69.46266 40790 ft 502 kts 116°
2026-05-06 21:56 19.46845 69.52934 40777 ft 502 kts 117°
2026-05-06 21:56 19.43805 69.59584 40787 ft 502 kts 117°
2026-05-06 21:57 19.40750 69.66233 40785 ft 502 kts 117°
2026-05-06 21:57 19.37691 69.72879 40781 ft 502 kts 117°
2026-05-06 21:58 19.34633 69.79518 40773 ft 502 kts 117°
2026-05-06 21:58 19.31574 69.86153 40772 ft 502 kts 117°
2026-05-06 21:59 19.28530 69.92748 40788 ft 502 kts 117°
2026-05-06 21:59 19.25466 69.99377 40785 ft 501 kts 117°
2026-05-06 22:00 19.22400 70.06003 40772 ft 501 kts 117°
2026-05-06 22:00 19.19332 70.12626 40768 ft 502 kts 117°
2026-05-06 22:01 19.16259 70.19254 40778 ft 502 kts 117°
2026-05-06 22:01 19.13183 70.25878 40784 ft 502 kts 117°
2026-05-06 22:02 19.10096 70.32521 40769 ft 502 kts 117°
2026-05-06 22:02 19.07014 70.39143 40781 ft 502 kts 117°
2026-05-06 22:03 19.03933 70.45758 40762 ft 502 kts 117°
2026-05-06 22:03 19.00849 70.52368 40773 ft 502 kts 117°
2026-05-06 22:04 18.97757 70.58989 40777 ft 502 kts 117°
2026-05-06 22:04 18.94666 70.65604 40779 ft 502 kts 117°
2026-05-06 22:05 18.91573 70.72214 40778 ft 502 kts 117°
2026-05-06 22:05 18.88477 70.78822 40781 ft 502 kts 117°
2026-05-06 22:06 18.85384 70.85416 40769 ft 501 kts 117°
2026-05-06 22:06 18.82288 70.92008 40774 ft 501 kts 117°
2026-05-06 22:07 18.79190 70.98599 40775 ft 501 kts 117°
2026-05-06 22:07 18.76091 71.05185 40762 ft 501 kts 117°
2026-05-06 22:08 18.72993 71.11760 40774 ft 501 kts 117°
2026-05-06 22:08 18.69891 71.18338 40779 ft 501 kts 117°
2026-05-06 22:09 18.66808 71.24868 40777 ft 501 kts 117°
2026-05-06 22:09 18.63703 71.31435 40780 ft 500 kts 117°
2026-05-06 22:10 18.60596 71.38002 40770 ft 501 kts 117°
2026-05-06 22:10 18.57484 71.44571 40766 ft 500 kts 117°
2026-05-06 22:11 18.54375 71.51127 40780 ft 500 kts 117°
2026-05-06 22:11 18.51260 71.57687 40781 ft 500 kts 117°
2026-05-06 22:12 18.48145 71.64242 40771 ft 500 kts 117°
2026-05-06 22:12 18.45028 71.70793 40767 ft 500 kts 117°
2026-05-06 22:13 18.41910 71.77339 40764 ft 500 kts 117°
2026-05-06 22:13 18.38789 71.83884 40783 ft 500 kts 117°
2026-05-06 22:14 18.35665 71.90428 40771 ft 500 kts 117°
2026-05-06 22:14 18.32537 71.96975 40769 ft 500 kts 117°
2026-05-06 22:15 18.29410 72.03513 40767 ft 500 kts 117°
2026-05-06 22:15 18.26281 72.10047 40784 ft 500 kts 117°
2026-05-06 22:16 18.23147 72.16583 40766 ft 500 kts 117°
2026-05-06 22:16 18.20015 72.23111 40760 ft 500 kts 117°
2026-05-06 22:17 18.16884 72.29627 40773 ft 499 kts 117°
2026-05-06 22:17 18.13749 72.36146 40763 ft 499 kts 117°
2026-05-06 22:18 18.10612 72.42663 40760 ft 499 kts 117°
2026-05-06 22:18 18.07476 72.49168 40760 ft 499 kts 117°
2026-05-06 22:19 18.04357 72.55634 40763 ft 499 kts 117°
2026-05-06 22:19 18.01216 72.62137 40758 ft 499 kts 117°
2026-05-06 22:20 17.98072 72.68642 40773 ft 499 kts 117°
2026-05-06 22:20 17.94927 72.75139 40754 ft 499 kts 117°
2026-05-06 22:21 17.91777 72.81641 40759 ft 499 kts 117°
2026-05-06 22:21 17.88638 72.88114 40771 ft 498 kts 117°
2026-05-06 22:22 17.85493 72.94591 40777 ft 497 kts 117°
2026-05-06 22:22 17.82351 73.01057 40762 ft 497 kts 117°
2026-05-06 22:23 17.79210 73.07514 40761 ft 497 kts 117°
2026-05-06 22:23 17.76064 73.13975 40761 ft 497 kts 117°
2026-05-06 22:24 17.72916 73.20434 40780 ft 497 kts 117°
2026-05-06 22:24 17.69770 73.26883 40781 ft 497 kts 117°
2026-05-06 22:25 17.66613 73.33339 40771 ft 497 kts 117°
2026-05-06 22:25 17.63458 73.39785 40776 ft 497 kts 117°
2026-05-06 22:26 17.60301 73.46231 40794 ft 497 kts 117°
2026-05-06 22:26 17.57143 73.52672 40799 ft 497 kts 117°
2026-05-06 22:27 17.53983 73.59111 40792 ft 497 kts 117°
2026-05-06 22:27 17.50821 73.65546 40799 ft 497 kts 117°
2026-05-06 22:28 17.47678 73.71939 40797 ft 497 kts 118°
2026-05-06 22:28 17.44493 73.78410 40816 ft 497 kts 118°
2026-05-06 22:29 17.41367 73.84754 40811 ft 497 kts 118°
2026-05-06 22:29 17.38193 73.91188 40820 ft 497 kts 118°
2026-05-06 22:30 17.35021 73.97613 40816 ft 497 kts 118°
2026-05-06 22:30 17.31844 74.04042 40816 ft 497 kts 118°
2026-05-06 22:31 17.28666 74.10467 40816 ft 497 kts 118°
2026-05-06 22:31 17.25483 74.16894 40816 ft 497 kts 118°
2026-05-06 22:32 17.22298 74.23320 40814 ft 497 kts 118°
2026-05-06 22:32 17.19121 74.29732 40811 ft 497 kts 118°
2026-05-06 22:33 17.15933 74.36157 40809 ft 497 kts 118°
2026-05-06 22:33 17.12744 74.42575 40806 ft 498 kts 118°
2026-05-06 22:34 17.09549 74.49003 40808 ft 498 kts 118°
2026-05-06 22:34 17.06360 74.55412 40807 ft 498 kts 118°
2026-05-06 22:35 17.03163 74.61831 40807 ft 498 kts 118°
2026-05-06 22:35 17.00507 74.67160 40806 ft 498 kts 118°
2026-05-06 22:36 16.97307 74.73573 40803 ft 498 kts 118°
2026-05-06 22:36 16.94104 74.79986 40805 ft 498 kts 118°
2026-05-06 22:37 16.90901 74.86394 40803 ft 498 kts 118°
2026-05-06 22:37 16.87694 74.92803 40803 ft 498 kts 118°
2026-05-06 22:38 16.84486 74.99208 40806 ft 498 kts 118°
2026-05-06 22:38 16.81276 75.05611 40805 ft 498 kts 118°
2026-05-06 22:39 16.78064 75.12012 40799 ft 497 kts 118°
2026-05-06 22:39 16.74857 75.18398 40810 ft 497 kts 118°
2026-05-06 22:40 16.71645 75.24786 40802 ft 497 kts 118°
2026-05-06 22:40 16.68431 75.31173 40804 ft 497 kts 118°
2026-05-06 22:41 16.63613 75.40735 40808 ft 497 kts 118°
2026-05-06 22:42 16.60395 75.47115 40804 ft 497 kts 118°
2026-05-06 22:42 16.57322 75.53573 40808 ft 497 kts 116°
2026-05-06 22:43 16.54390 75.60045 40807 ft 497 kts 116°
2026-05-06 22:43 16.51399 75.66596 40808 ft 497 kts 116°
2026-05-06 22:44 16.48419 75.73047 40808 ft 497 kts 116°
2026-05-06 22:44 16.45405 75.79538 40807 ft 498 kts 116°
2026-05-06 22:45 16.42370 75.86067 40805 ft 498 kts 116°
2026-05-06 22:45 16.39371 75.92518 40804 ft 498 kts 116°
2026-05-06 22:46 16.36354 75.99000 40802 ft 498 kts 116°
2026-05-06 22:46 16.33326 76.05484 40807 ft 497 kts 117°
2026-05-06 22:47 16.30275 76.11940 40808 ft 497 kts 117°
2026-05-06 22:47 16.27200 76.18440 40810 ft 497 kts 117°
2026-05-06 22:48 16.24172 76.24848 40813 ft 497 kts 117°
2026-05-06 22:48 16.21128 76.31291 40813 ft 496 kts 117°
2026-05-06 22:49 16.18079 76.37737 40817 ft 496 kts 117°
2026-05-06 22:49 16.15010 76.44221 40816 ft 496 kts 117°
2026-05-06 22:50 16.11980 76.50614 40819 ft 496 kts 117°
2026-05-06 22:50 16.08908 76.57090 40819 ft 496 kts 117°
2026-05-06 22:51 16.05875 76.63478 40820 ft 496 kts 117°
2026-05-06 22:51 16.02822 76.69903 40824 ft 496 kts 117°
2026-05-06 22:52 15.99762 76.76335 40819 ft 496 kts 117°
2026-05-06 22:52 15.96703 76.82761 40821 ft 496 kts 117°
2026-05-06 22:53 15.93642 76.89184 40819 ft 496 kts 117°
2026-05-06 22:53 15.90579 76.95604 40820 ft 496 kts 117°
2026-05-06 22:54 15.87512 77.02030 40820 ft 496 kts 117°
2026-05-06 22:54 15.84443 77.08451 40815 ft 496 kts 117°
2026-05-06 22:55 15.81371 77.14873 40811 ft 496 kts 117°
2026-05-06 22:55 15.78301 77.21285 40818 ft 497 kts 117°
2026-05-06 22:56 15.75222 77.27712 40815 ft 497 kts 117°
2026-05-06 22:56 15.72145 77.34128 40816 ft 497 kts 117°
2026-05-06 22:57 15.69073 77.40557 40815 ft 497 kts 117°
2026-05-06 22:57 15.66014 77.46991 40815 ft 497 kts 117°
2026-05-06 22:58 15.62952 77.53426 40812 ft 497 kts 117°
2026-05-06 22:58 15.59888 77.59852 40817 ft 497 kts 117°
2026-05-06 22:59 15.56819 77.66281 40818 ft 497 kts 117°
2026-05-06 22:59 15.53753 77.72697 40819 ft 497 kts 117°
2026-05-06 23:00 15.50682 77.79119 40819 ft 497 kts 117°
2026-05-06 23:00 15.47611 77.85533 40816 ft 497 kts 117°
2026-05-06 23:01 15.44541 77.91940 40816 ft 497 kts 117°
2026-05-06 23:01 15.41467 77.98350 40818 ft 497 kts 117°
2026-05-06 23:02 15.38390 78.04761 40813 ft 497 kts 117°
2026-05-06 23:02 15.35309 78.11176 40810 ft 497 kts 117°
2026-05-06 23:03 15.32225 78.17524 40808 ft 497 kts 118°
2026-05-06 23:03 15.29094 78.23900 40801 ft 497 kts 118°
2026-05-06 23:04 15.25964 78.30283 40805 ft 497 kts 118°
2026-05-06 23:04 15.22834 78.36673 40806 ft 497 kts 117°
2026-05-06 23:05 15.19711 78.43049 40800 ft 497 kts 117°
2026-05-06 23:05 15.16586 78.49422 40801 ft 496 kts 117°
2026-05-06 23:06 15.13458 78.55797 40801 ft 496 kts 118°
2026-05-06 23:06 15.10333 78.62160 40802 ft 496 kts 118°
2026-05-06 23:07 15.07208 78.68516 40803 ft 495 kts 118°
2026-05-06 23:07 15.04084 78.74866 40804 ft 495 kts 118°
2026-05-06 23:08 15.00961 78.81209 40802 ft 495 kts 118°
2026-05-06 23:08 14.97835 78.87552 40806 ft 495 kts 118°
2026-05-06 23:09 14.94707 78.93892 40809 ft 495 kts 118°
2026-05-06 23:09 14.91576 79.00234 40805 ft 495 kts 118°
2026-05-06 23:10 14.88448 79.06565 40805 ft 494 kts 118°
2026-05-06 23:10 14.85319 79.12893 40798 ft 494 kts 118°
2026-05-06 23:11 14.82189 79.19216 40798 ft 494 kts 118°
2026-05-06 23:11 14.79061 79.25530 40798 ft 494 kts 118°
2026-05-06 23:12 14.75930 79.31845 40801 ft 493 kts 118°
2026-05-06 23:12 14.72801 79.38152 40800 ft 493 kts 118°
2026-05-06 23:13 14.69670 79.44457 40794 ft 493 kts 118°
2026-05-06 23:13 14.66538 79.50759 40792 ft 493 kts 118°
2026-05-06 23:14 14.63406 79.57054 40794 ft 493 kts 118°
2026-05-06 23:14 14.60270 79.63353 40790 ft 493 kts 118°
2026-05-06 23:15 14.57140 79.69635 40792 ft 492 kts 118°
2026-05-06 23:15 14.54026 79.75880 40790 ft 492 kts 118°
2026-05-06 23:16 14.50891 79.82163 40790 ft 492 kts 118°
2026-05-06 23:16 14.47755 79.88440 40790 ft 492 kts 118°
2026-05-06 23:17 14.44617 79.94719 40792 ft 492 kts 118°
2026-05-06 23:17 14.41480 80.00990 40788 ft 492 kts 118°
2026-05-06 23:18 14.38340 80.07260 40791 ft 492 kts 118°
2026-05-06 23:18 14.35201 80.13523 40791 ft 492 kts 118°
2026-05-06 23:19 14.32060 80.19787 40788 ft 492 kts 118°
2026-05-06 23:19 14.28918 80.26047 40784 ft 492 kts 118°
2026-05-06 23:20 14.25777 80.32302 40789 ft 491 kts 118°
2026-05-06 23:20 14.22634 80.38553 40803 ft 491 kts 118°
2026-05-06 23:21 14.20018 80.43753 40792 ft 491 kts 118°
2026-05-06 23:21 14.16877 80.49993 40804 ft 491 kts 118°
2026-05-06 23:22 14.13735 80.56229 40791 ft 490 kts 118°
2026-05-06 23:22 14.10595 80.62456 40798 ft 490 kts 118°
2026-05-06 23:23 14.06945 80.69688 40805 ft 489 kts 118°
2026-05-06 23:23 14.04337 80.74851 40786 ft 489 kts 118°
2026-05-06 23:24 14.01197 80.81064 40799 ft 489 kts 118°
2026-05-06 23:24 13.98082 80.87285 40796 ft 489 kts 118°
2026-05-06 23:25 13.95056 80.93546 40797 ft 488 kts 117°
2026-05-06 23:25 13.92037 80.99808 40798 ft 488 kts 117°
2026-05-06 23:26 13.89005 81.06058 40798 ft 488 kts 118°
2026-05-06 23:26 13.85964 81.12300 40798 ft 487 kts 118°
2026-05-06 23:27 13.82926 81.18529 40802 ft 487 kts 118°
2026-05-06 23:27 13.79888 81.24756 40799 ft 487 kts 118°
2026-05-06 23:28 13.76850 81.30979 40801 ft 487 kts 118°
2026-05-06 23:28 13.73810 81.37201 40797 ft 486 kts 118°
2026-05-06 23:29 13.70770 81.43416 40795 ft 486 kts 118°
2026-05-06 23:29 13.67738 81.49632 40792 ft 486 kts 118°
2026-05-06 23:30 13.64706 81.55843 40790 ft 486 kts 118°
2026-05-06 23:30 13.61672 81.62054 40796 ft 486 kts 118°
2026-05-06 23:31 13.58635 81.68267 40794 ft 486 kts 118°
2026-05-06 23:31 13.55601 81.74467 40794 ft 486 kts 118°
2026-05-06 23:32 13.52564 81.80672 40793 ft 486 kts 118°
2026-05-06 23:32 13.49527 81.86872 40793 ft 485 kts 118°
2026-05-06 23:33 13.46492 81.93061 40784 ft 485 kts 118°
2026-05-06 23:33 13.43455 81.99251 40795 ft 485 kts 118°
2026-05-06 23:34 13.40420 82.05431 40792 ft 485 kts 118°
2026-05-06 23:34 13.37384 82.11611 40793 ft 484 kts 118°
2026-05-06 23:35 13.34348 82.17784 40795 ft 484 kts 118°
2026-05-06 23:35 13.31312 82.23952 40785 ft 484 kts 118°
2026-05-06 23:36 13.28276 82.30117 40786 ft 484 kts 118°
2026-05-06 23:36 13.25243 82.36272 40794 ft 483 kts 118°
2026-05-06 23:37 13.22210 82.42423 40780 ft 483 kts 118°
2026-05-06 23:37 13.19181 82.48561 40790 ft 482 kts 118°
2026-05-06 23:38 13.16148 82.54700 40790 ft 481 kts 118°
2026-05-06 23:38 13.13142 82.60780 40788 ft 481 kts 118°
2026-05-06 23:39 13.10119 82.66892 40789 ft 480 kts 118°
2026-05-06 23:39 13.07098 82.72995 40795 ft 480 kts 118°
2026-05-06 23:40 13.04077 82.79093 40794 ft 479 kts 118°
2026-05-06 23:40 13.01059 82.85181 40791 ft 479 kts 118°
2026-05-06 23:41 12.98038 82.91270 40790 ft 479 kts 118°
2026-05-06 23:41 12.95019 82.97352 40788 ft 479 kts 118°
2026-05-06 23:42 12.91995 83.03439 40790 ft 479 kts 118°
2026-05-06 23:42 12.88971 83.09521 40790 ft 479 kts 118°
2026-05-06 23:43 12.85947 83.15601 40792 ft 479 kts 118°
2026-05-06 23:43 12.82922 83.21678 40789 ft 479 kts 118°
2026-05-06 23:44 12.79897 83.27750 40792 ft 478 kts 118°
2026-05-06 23:44 12.76869 83.33824 40793 ft 478 kts 118°
2026-05-06 23:45 12.73843 83.39888 40793 ft 478 kts 118°
2026-05-06 23:45 12.70838 83.45909 40791 ft 478 kts 118°
2026-05-06 23:46 12.67815 83.51960 40792 ft 477 kts 118°
2026-05-06 23:46 12.64801 83.58007 40793 ft 477 kts 117°
2026-05-06 23:47 12.61870 83.64098 40793 ft 477 kts 117°
2026-05-06 23:47 12.58965 83.70199 40792 ft 476 kts 117°
2026-05-06 23:48 12.56050 83.76283 40793 ft 476 kts 117°
2026-05-06 23:48 12.53126 83.82359 40795 ft 476 kts 117°
2026-05-06 23:49 12.50196 83.88437 40795 ft 476 kts 117°
2026-05-06 23:49 12.47270 83.94504 40791 ft 476 kts 117°
2026-05-06 23:50 12.44342 84.00570 40792 ft 475 kts 117°
2026-05-06 23:50 12.39950 84.09665 40796 ft 475 kts 117°
2026-05-06 23:51 12.37020 84.15728 40796 ft 476 kts 117°
2026-05-06 23:51 12.34083 84.21799 40796 ft 476 kts 117°
2026-05-06 23:52 12.31147 84.27865 40794 ft 476 kts 117°
2026-05-06 23:52 12.28205 84.33939 40796 ft 477 kts 117°
2026-05-06 23:53 12.25260 84.40013 40793 ft 477 kts 117°
2026-05-06 23:53 12.22309 84.46097 40796 ft 477 kts 117°
2026-05-06 23:54 12.19360 84.52174 40794 ft 478 kts 117°
2026-05-06 23:54 12.16404 84.58260 40795 ft 478 kts 117°
2026-05-06 23:55 12.13448 84.64343 40796 ft 478 kts 117°
2026-05-06 23:55 12.10486 84.70432 40798 ft 479 kts 117°
2026-05-06 23:56 12.07521 84.76526 40798 ft 479 kts 117°
2026-05-06 23:56 12.04555 84.82618 40801 ft 479 kts 117°
2026-05-06 23:57 12.01594 84.88694 40798 ft 480 kts 117°
2026-05-06 23:57 11.98617 84.94799 40799 ft 480 kts 117°
2026-05-06 23:58 11.95637 85.00905 40799 ft 481 kts 117°
2026-05-06 23:58 11.92653 85.07017 40795 ft 481 kts 117°
2026-05-06 23:59 11.89686 85.13091 40796 ft 481 kts 117°
2026-05-06 23:59 11.86678 85.19242 40799 ft 481 kts 117°
2026-05-07 00:00 11.83706 85.25317 40801 ft 482 kts 117°
2026-05-07 00:00 11.81195 85.30445 40798 ft 482 kts 117°
2026-05-07 00:01 11.77717 85.37546 40800 ft 481 kts 117°
2026-05-07 00:01 11.74716 85.43666 40800 ft 481 kts 117°
2026-05-07 00:02 11.71721 85.49772 40800 ft 481 kts 117°
2026-05-07 00:02 11.68726 85.55875 40797 ft 481 kts 117°
2026-05-07 00:03 11.65729 85.61977 40800 ft 481 kts 117°
2026-05-07 00:03 11.62732 85.68076 40798 ft 481 kts 117°
2026-05-07 00:04 11.59734 85.74171 40801 ft 480 kts 117°
2026-05-07 00:04 11.56741 85.80253 40802 ft 480 kts 117°
2026-05-07 00:05 11.53751 85.86326 40800 ft 479 kts 117°
2026-05-07 00:05 11.50759 85.92399 40800 ft 479 kts 117°
2026-05-07 00:06 11.47767 85.98468 40802 ft 478 kts 117°
2026-05-07 00:06 11.44779 86.04525 40803 ft 478 kts 117°
2026-05-07 00:07 11.41794 86.10573 40802 ft 477 kts 117°
2026-05-07 00:07 11.38807 86.16616 40807 ft 477 kts 117°
2026-05-07 00:08 11.36332 86.21623 40804 ft 476 kts 117°
2026-05-07 00:08 11.33359 86.27633 40801 ft 475 kts 117°
2026-05-07 00:09 11.30382 86.33650 40803 ft 475 kts 117°
2026-05-07 00:09 11.27407 86.39657 40801 ft 475 kts 117°
2026-05-07 00:10 11.24431 86.45662 40802 ft 475 kts 117°
2026-05-07 00:10 11.21434 86.51708 40804 ft 475 kts 117°
2026-05-07 00:11 11.18474 86.57674 40800 ft 475 kts 117°
2026-05-07 00:11 11.15495 86.63676 40799 ft 475 kts 117°
2026-05-07 00:12 11.12520 86.69669 40803 ft 475 kts 117°
2026-05-07 00:12 11.09539 86.75668 40804 ft 474 kts 117°
2026-05-07 00:13 11.06560 86.81658 40804 ft 474 kts 117°
2026-05-07 00:13 11.03580 86.87648 40802 ft 474 kts 117°
2026-05-07 00:14 11.00597 86.93639 40804 ft 474 kts 117°
2026-05-07 00:14 10.97616 86.99624 40803 ft 474 kts 117°
2026-05-07 00:15 10.94636 87.05603 40802 ft 474 kts 117°
2026-05-07 00:15 10.91654 87.11580 40804 ft 474 kts 117°
2026-05-07 00:16 10.88670 87.17561 40802 ft 474 kts 117°
2026-05-07 00:16 10.85689 87.23531 40807 ft 474 kts 117°
2026-05-07 00:17 10.82705 87.29503 40806 ft 474 kts 117°
2026-05-07 00:17 10.79719 87.35477 40806 ft 474 kts 117°
2026-05-07 00:18 10.76730 87.41452 40807 ft 474 kts 117°
2026-05-07 00:18 10.73744 87.47418 40806 ft 474 kts 117°
2026-05-07 00:19 10.70774 87.53348 40807 ft 474 kts 117°
2026-05-07 00:19 10.67784 87.59316 40809 ft 474 kts 117°
2026-05-07 00:20 10.64795 87.65279 40808 ft 473 kts 117°
2026-05-07 00:20 10.61806 87.71238 40808 ft 473 kts 117°
2026-05-07 00:21 10.58812 87.77202 40807 ft 473 kts 117°
2026-05-07 00:21 10.55824 87.83152 40807 ft 473 kts 117°
2026-05-07 00:22 10.52833 87.89105 40806 ft 473 kts 117°
2026-05-07 00:22 10.49843 87.95051 40808 ft 472 kts 117°
2026-05-07 00:23 10.46852 88.00997 40809 ft 472 kts 117°
2026-05-07 00:23 10.43863 88.06935 40811 ft 472 kts 117°
2026-05-07 00:24 10.40872 88.12873 40810 ft 472 kts 117°
2026-05-07 00:24 10.37882 88.18807 40809 ft 472 kts 117°
2026-05-07 00:25 10.34892 88.24739 40810 ft 472 kts 117°
2026-05-07 00:25 10.31899 88.30671 40811 ft 471 kts 117°
2026-05-07 00:26 10.28912 88.36588 40809 ft 471 kts 117°
2026-05-07 00:26 10.25920 88.42514 40811 ft 471 kts 117°
2026-05-07 00:27 10.22931 88.48427 40810 ft 470 kts 117°
2026-05-07 00:27 10.19948 88.54335 40808 ft 470 kts 117°
2026-05-07 00:28 10.17169 88.60283 40811 ft 470 kts 114°
2026-05-07 00:28 10.14472 88.66320 40814 ft 469 kts 114°
2026-05-07 00:29 10.11756 88.72332 40812 ft 469 kts 115°
2026-05-07 00:30 10.06260 88.84324 40812 ft 468 kts 115°
2026-05-07 00:30 10.03510 88.90306 40819 ft 468 kts 115°
2026-05-07 00:31 10.00763 88.96285 40814 ft 468 kts 115°
2026-05-07 00:31 9.98014 89.02265 40816 ft 467 kts 115°
2026-05-07 00:32 9.95267 89.08237 40815 ft 467 kts 115°
2026-05-07 00:32 9.92521 89.14203 40818 ft 467 kts 115°
2026-05-07 00:33 9.89776 89.20165 40818 ft 466 kts 115°
2026-05-07 00:33 9.87029 89.26127 40814 ft 466 kts 115°
2026-05-07 00:34 9.84285 89.32079 40815 ft 466 kts 115°
2026-05-07 00:34 9.81536 89.38038 40815 ft 466 kts 115°
2026-05-07 00:35 9.78790 89.43990 40819 ft 466 kts 115°
2026-05-07 00:35 9.76043 89.49938 40821 ft 466 kts 115°
2026-05-07 00:36 9.73311 89.55851 40821 ft 466 kts 115°
2026-05-07 00:36 9.70565 89.61791 40822 ft 466 kts 115°
2026-05-07 00:37 9.67814 89.67740 40822 ft 466 kts 115°
2026-05-07 00:37 9.65064 89.73683 40819 ft 466 kts 115°
2026-05-07 00:38 9.62313 89.79626 40821 ft 466 kts 115°
2026-05-07 00:38 9.59560 89.85569 40820 ft 466 kts 115°
2026-05-07 00:39 9.56804 89.91514 40820 ft 466 kts 115°
2026-05-07 00:39 9.54050 89.97455 40823 ft 466 kts 115°
2026-05-07 00:40 9.51293 90.03397 40822 ft 466 kts 115°
2026-05-07 00:40 9.48536 90.09335 40825 ft 466 kts 115°
2026-05-07 00:41 9.45781 90.15266 40826 ft 466 kts 115°
2026-05-07 00:41 9.43023 90.21202 40830 ft 465 kts 115°
2026-05-07 00:42 9.40265 90.27133 40830 ft 465 kts 115°
2026-05-07 00:42 9.37527 90.33019 40830 ft 465 kts 115°
2026-05-07 00:43 9.34755 90.38976 40829 ft 465 kts 115°
2026-05-07 00:43 9.32017 90.44855 40829 ft 464 kts 115°
2026-05-07 00:44 9.29262 90.50769 40836 ft 464 kts 115°
2026-05-07 00:44 9.26505 90.56682 40835 ft 464 kts 115°
2026-05-07 00:45 9.23753 90.62583 40832 ft 464 kts 115°
2026-05-07 00:45 9.20997 90.68491 40834 ft 464 kts 114°
2026-05-07 00:46 9.18241 90.74395 40834 ft 464 kts 114°
2026-05-07 00:46 9.15485 90.80296 40833 ft 464 kts 114°
2026-05-07 00:47 9.12730 90.86191 40834 ft 463 kts 114°
2026-05-07 00:47 9.09974 90.92084 40835 ft 463 kts 114°
2026-05-07 00:48 9.07215 90.97983 40839 ft 464 kts 114°
2026-05-07 00:48 9.04456 91.03878 40839 ft 464 kts 114°
2026-05-07 00:49 9.01698 91.09768 40840 ft 464 kts 114°
2026-05-07 00:49 8.98936 91.15665 40840 ft 464 kts 114°
2026-05-07 00:50 8.96172 91.21562 40843 ft 464 kts 114°
2026-05-07 00:50 8.93408 91.27456 40842 ft 464 kts 114°
2026-05-07 00:51 8.90644 91.33348 40841 ft 464 kts 114°
2026-05-07 00:51 8.87877 91.39243 40845 ft 464 kts 114°
2026-05-07 00:52 8.85106 91.45143 40844 ft 464 kts 114°
2026-05-07 00:52 8.82334 91.51045 40845 ft 465 kts 114°
2026-05-07 00:53 8.79559 91.56948 40845 ft 465 kts 114°
2026-05-07 00:53 8.76782 91.62852 40844 ft 465 kts 114°
2026-05-07 00:54 8.74000 91.68765 40847 ft 466 kts 114°
2026-05-07 00:54 8.71219 91.74673 40848 ft 466 kts 114°
2026-05-07 00:55 8.68903 91.79591 40848 ft 466 kts 114°
2026-05-07 00:55 8.66114 91.85512 40847 ft 467 kts 114°
2026-05-07 00:56 8.63321 91.91437 40848 ft 467 kts 114°
2026-05-07 00:56 8.60524 91.97367 40848 ft 468 kts 114°
2026-05-07 00:57 8.57750 92.03321 40847 ft 468 kts 113°
2026-05-07 00:57 8.55108 92.09329 40851 ft 468 kts 113°
2026-05-07 00:58 8.52480 92.15348 40853 ft 469 kts 113°
2026-05-07 00:58 8.49827 92.21367 40852 ft 469 kts 113°
2026-05-07 00:59 8.45828 92.30385 40849 ft 469 kts 113°
2026-05-07 01:00 8.43157 92.36401 40851 ft 469 kts 113°
2026-05-07 01:00 8.40484 92.42421 40853 ft 469 kts 113°
2026-05-07 01:01 8.37812 92.48436 40853 ft 470 kts 113°
2026-05-07 01:01 8.35139 92.54451 40854 ft 470 kts 113°
2026-05-07 01:02 8.32466 92.60465 40856 ft 469 kts 113°
2026-05-07 01:02 8.29791 92.66479 40853 ft 469 kts 113°
2026-05-07 01:03 8.27117 92.72485 40848 ft 469 kts 113°
2026-05-07 01:03 8.24464 92.78444 40851 ft 468 kts 113°
2026-05-07 01:04 8.21776 92.84480 40855 ft 468 kts 113°
2026-05-07 01:04 8.19125 92.90427 40862 ft 468 kts 113°
2026-05-07 01:05 8.16456 92.96414 40855 ft 468 kts 113°
2026-05-07 01:05 8.13788 93.02396 40856 ft 468 kts 113°
2026-05-07 01:06 8.11117 93.08382 40851 ft 468 kts 114°
2026-05-07 01:06 8.08445 93.14364 40850 ft 468 kts 113°
2026-05-07 01:07 8.05773 93.20347 40861 ft 467 kts 114°
2026-05-07 01:07 8.03102 93.26325 40861 ft 467 kts 113°
2026-05-07 01:08 8.00432 93.32296 40859 ft 467 kts 114°
2026-05-07 01:08 7.97762 93.38267 40855 ft 467 kts 113°
2026-05-07 01:09 7.95090 93.44236 40854 ft 467 kts 113°
2026-05-07 01:09 7.92420 93.50202 40860 ft 466 kts 113°
2026-05-07 01:10 7.89765 93.56170 40858 ft 466 kts 113°
2026-05-07 01:10 7.87119 93.62136 40860 ft 466 kts 113°
2026-05-07 01:11 7.84474 93.68094 40859 ft 465 kts 113°
2026-05-07 01:11 7.81827 93.74052 40857 ft 465 kts 113°
2026-05-07 01:12 7.79182 93.79998 40860 ft 465 kts 113°
2026-05-07 01:12 7.76540 93.85937 40855 ft 464 kts 113°
2026-05-07 01:13 7.73899 93.91871 40855 ft 464 kts 113°
2026-05-07 01:13 7.71253 93.97812 40856 ft 464 kts 113°
2026-05-07 01:14 7.68627 94.03707 40852 ft 464 kts 113°
2026-05-07 01:14 7.65986 94.09632 40856 ft 464 kts 113°
2026-05-07 01:15 7.63341 94.15564 40859 ft 464 kts 113°
2026-05-07 01:15 7.60696 94.21495 40860 ft 464 kts 113°
2026-05-07 01:16 7.58050 94.27424 40860 ft 464 kts 113°
2026-05-07 01:16 7.55404 94.33351 40861 ft 464 kts 113°
2026-05-07 01:17 7.52750 94.39293 40860 ft 465 kts 113°
2026-05-07 01:17 7.50058 94.45224 40860 ft 466 kts 114°
2026-05-07 01:18 7.47190 94.51085 40861 ft 467 kts 115°
2026-05-07 01:18 7.44294 94.56942 40859 ft 467 kts 115°
2026-05-07 01:19 7.41422 94.62813 40860 ft 467 kts 115°
2026-05-07 01:19 7.38561 94.68698 40856 ft 468 kts 115°
2026-05-07 01:20 7.35703 94.74583 40858 ft 468 kts 115°
2026-05-07 01:20 7.32842 94.80470 40860 ft 468 kts 115°
2026-05-07 01:21 7.29979 94.86355 40861 ft 468 kts 115°
2026-05-07 01:21 7.27113 94.92243 40861 ft 468 kts 115°
2026-05-07 01:22 7.24246 94.98133 40865 ft 468 kts 115°
2026-05-07 01:22 7.21378 95.04020 40862 ft 469 kts 115°
2026-05-07 01:23 7.18504 95.09919 40861 ft 469 kts 115°
2026-05-07 01:23 7.15629 95.15818 40859 ft 469 kts 115°
2026-05-07 01:24 7.12772 95.21678 40860 ft 470 kts 115°
2026-05-07 01:24 7.09891 95.27585 40862 ft 470 kts 115°
2026-05-07 01:25 7.07008 95.33493 40862 ft 470 kts 115°
2026-05-07 01:25 7.04121 95.39406 40862 ft 471 kts 115°
2026-05-07 01:26 7.01235 95.45317 40861 ft 471 kts 115°
2026-05-07 01:26 6.98344 95.51234 40861 ft 471 kts 115°
2026-05-07 01:27 6.95451 95.57154 40861 ft 471 kts 115°
2026-05-07 01:27 6.92555 95.63078 40864 ft 472 kts 115°
2026-05-07 01:28 6.89657 95.69004 40861 ft 472 kts 115°
2026-05-07 01:28 6.86757 95.74929 40861 ft 472 kts 115°
2026-05-07 01:29 6.83855 95.80859 40862 ft 473 kts 115°
2026-05-07 01:29 6.80947 95.86798 40862 ft 473 kts 115°
2026-05-07 01:30 6.78038 95.92737 40866 ft 473 kts 115°
2026-05-07 01:30 6.75128 95.98677 40862 ft 474 kts 115°
2026-05-07 01:31 6.72216 96.04622 40864 ft 474 kts 115°
2026-05-07 01:31 6.69297 96.10577 40860 ft 474 kts 115°
2026-05-07 01:32 6.66380 96.16525 40862 ft 475 kts 115°
2026-05-07 01:32 6.63456 96.22487 40863 ft 475 kts 115°
2026-05-07 01:33 6.60534 96.28442 40862 ft 475 kts 115°
2026-05-07 01:33 6.57607 96.34406 40870 ft 475 kts 115°
2026-05-07 01:34 6.54681 96.40366 40867 ft 476 kts 115°
2026-05-07 01:34 6.51748 96.46337 40867 ft 476 kts 115°
2026-05-07 01:35 6.49394 96.52528 40868 ft 474 kts 107°
2026-05-07 01:35 6.47485 96.58882 40866 ft 474 kts 105°
2026-05-07 01:36 6.45641 96.65248 40865 ft 475 kts 105°
2026-05-07 01:36 6.43789 96.71625 40864 ft 475 kts 105°
2026-05-07 01:37 6.41940 96.77947 40866 ft 475 kts 105°
2026-05-07 01:37 6.40071 96.84316 40867 ft 475 kts 105°
2026-05-07 01:38 6.38200 96.90684 40867 ft 475 kts 105°
2026-05-07 01:38 6.36331 96.97048 40867 ft 475 kts 105°
2026-05-07 01:39 6.34458 97.03423 40866 ft 475 kts 105°
2026-05-07 01:39 6.32586 97.09788 40867 ft 475 kts 105°
2026-05-07 01:40 6.31129 97.14744 40868 ft 475 kts 105°
2026-05-07 01:40 6.29255 97.21113 40867 ft 475 kts 105°
2026-05-07 01:41 6.27380 97.27481 40868 ft 475 kts 105°
2026-05-07 01:41 6.25506 97.33845 40864 ft 475 kts 105°
2026-05-07 01:42 6.23947 97.39135 40867 ft 475 kts 105°
2026-05-07 01:42 6.21754 97.46575 40870 ft 475 kts 106°
2026-05-07 01:43 6.20192 97.51872 40868 ft 475 kts 106°
2026-05-07 01:43 6.17881 97.58073 40870 ft 476 kts 117°
2026-05-07 01:44 6.14033 97.63487 40871 ft 477 kts 129°
2026-05-07 01:44 6.08987 97.69367 40868 ft 478 kts 130°
2026-05-07 01:45 6.05306 97.73573 40868 ft 479 kts 130°
2026-05-07 01:45 6.00929 97.78607 40870 ft 479 kts 130°
2026-05-07 01:46 5.96560 97.83663 40866 ft 479 kts 130°
2026-05-07 01:46 5.92199 97.88719 40867 ft 479 kts 130°
2026-05-07 01:47 5.87832 97.93780 40867 ft 480 kts 130°
2026-05-07 01:47 5.83462 97.98843 40866 ft 480 kts 130°
2026-05-07 01:48 5.79118 98.03872 40863 ft 480 kts 130°
2026-05-07 01:48 5.74713 98.08971 40867 ft 480 kts 130°
2026-05-07 01:49 5.70365 98.14003 40870 ft 480 kts 130°
2026-05-07 01:49 5.65990 98.19065 40865 ft 480 kts 130°
2026-05-07 01:50 5.61612 98.24129 40869 ft 480 kts 130°
2026-05-07 01:50 5.57235 98.29191 40867 ft 480 kts 130°
2026-05-07 01:51 5.52858 98.34251 40868 ft 480 kts 130°
2026-05-07 01:51 5.48479 98.39312 40866 ft 480 kts 130°
2026-05-07 01:52 5.44098 98.44375 40862 ft 480 kts 130°
2026-05-07 01:52 5.39723 98.49429 40864 ft 480 kts 130°
2026-05-07 01:53 5.35338 98.54494 40864 ft 480 kts 130°
2026-05-07 01:53 5.30955 98.59554 40865 ft 481 kts 130°
2026-05-07 01:54 5.26580 98.64606 40867 ft 481 kts 130°
2026-05-07 01:54 5.22191 98.69672 40869 ft 481 kts 130°
2026-05-07 01:55 5.17799 98.74739 40869 ft 481 kts 130°
2026-05-07 01:55 5.13403 98.79810 40865 ft 482 kts 130°
2026-05-07 01:56 5.09007 98.84881 40869 ft 482 kts 130°
2026-05-07 01:56 5.04613 98.89948 40868 ft 482 kts 130°
2026-05-07 01:57 5.00211 98.95023 40868 ft 482 kts 130°
2026-05-07 01:57 4.95815 99.00091 40867 ft 481 kts 130°
2026-05-07 01:58 4.91418 99.05157 40866 ft 481 kts 130°
2026-05-07 01:58 4.87032 99.10211 40864 ft 481 kts 130°
2026-05-07 01:59 4.82638 99.15272 40865 ft 480 kts 130°
2026-05-07 01:59 4.78255 99.20318 40864 ft 480 kts 130°
2026-05-07 02:00 4.73871 99.25365 40866 ft 480 kts 130°
2026-05-07 02:00 4.69489 99.30410 40865 ft 479 kts 130°
2026-05-07 02:01 4.65108 99.35453 40864 ft 479 kts 130°
2026-05-07 02:01 4.60729 99.40492 40864 ft 480 kts 130°
2026-05-07 02:02 4.56348 99.45531 40865 ft 480 kts 130°
2026-05-07 02:02 4.51960 99.50578 40866 ft 480 kts 130°
2026-05-07 02:03 4.47603 99.55651 40868 ft 480 kts 129°
2026-05-07 02:03 4.43437 99.60885 40865 ft 480 kts 127°
2026-05-07 02:04 4.39307 99.66152 40872 ft 480 kts 127°
2026-05-07 02:04 4.35152 99.71395 40879 ft 481 kts 128°
2026-05-07 02:05 4.30974 99.76626 40875 ft 481 kts 128°
2026-05-07 02:05 4.26785 99.81859 40869 ft 481 kts 128°
2026-05-07 02:06 4.22599 99.87090 40872 ft 482 kts 128°
2026-05-07 02:06 4.18369 99.92378 40868 ft 491 kts 128°
2026-05-07 02:07 4.14101 99.97712 40868 ft 495 kts 128°
2026-05-07 02:07 4.07637 100.05788 40867 ft 495 kts 128°
2026-05-07 02:08 4.03329 100.11168 40868 ft 495 kts 128°
2026-05-07 02:08 3.99015 100.16557 40869 ft 496 kts 128°
2026-05-07 02:09 3.94672 100.21981 40870 ft 496 kts 128°
2026-05-07 02:09 3.90390 100.27327 40871 ft 496 kts 128°
2026-05-07 02:10 3.86069 100.32720 40868 ft 496 kts 128°
2026-05-07 02:10 3.81752 100.38108 40869 ft 496 kts 128°
2026-05-07 02:11 3.77434 100.43496 40868 ft 496 kts 129°
2026-05-07 02:11 3.73109 100.48892 40869 ft 497 kts 129°
2026-05-07 02:12 3.68784 100.54287 40870 ft 497 kts 129°
2026-05-07 02:12 3.64458 100.59681 40871 ft 497 kts 129°
2026-05-07 02:13 3.60136 100.65070 40869 ft 496 kts 129°
2026-05-07 02:13 3.55811 100.70462 40869 ft 496 kts 128°
2026-05-07 02:14 3.51492 100.75847 40870 ft 496 kts 129°
2026-05-07 02:14 3.47171 100.81232 40870 ft 496 kts 129°
2026-05-07 02:15 3.42851 100.86617 40870 ft 496 kts 129°
2026-05-07 02:15 3.38529 100.92001 40870 ft 496 kts 129°
2026-05-07 02:16 3.34206 100.97389 40871 ft 496 kts 129°
2026-05-07 02:16 3.29878 101.02771 40871 ft 496 kts 129°
2026-05-07 02:17 3.25546 101.08149 40871 ft 496 kts 128°
2026-05-07 02:17 3.21212 101.13533 40872 ft 497 kts 128°
2026-05-07 02:18 3.16882 101.18913 40868 ft 497 kts 128°
2026-05-07 02:18 3.12638 101.24188 40866 ft 497 kts 128°
2026-05-07 02:19 3.08288 101.29566 40863 ft 497 kts 128°
2026-05-07 02:19 3.03965 101.34892 40860 ft 496 kts 128°
2026-05-07 02:20 2.99614 101.40258 40862 ft 496 kts 128°
2026-05-07 02:20 2.95267 101.45625 40860 ft 496 kts 128°
2026-05-07 02:21 2.90923 101.50989 40857 ft 497 kts 128°
2026-05-07 02:21 2.86571 101.56364 40859 ft 497 kts 128°
2026-05-07 02:22 2.82221 101.61731 40856 ft 497 kts 128°
2026-05-07 02:22 2.77871 101.67100 40857 ft 497 kts 128°
2026-05-07 02:23 2.73409 101.72379 40858 ft 498 kts 134°
2026-05-07 02:23 2.67950 101.76633 40859 ft 499 kts 146°
2026-05-07 02:24 2.62092 101.80364 40858 ft 499 kts 147°
2026-05-07 02:24 2.56179 101.84016 40863 ft 500 kts 147°
2026-05-07 02:25 2.50271 101.87682 40867 ft 500 kts 147°
2026-05-07 02:25 2.44367 101.91369 40872 ft 500 kts 147°
2026-05-07 02:26 2.38466 101.95064 40874 ft 501 kts 147°
2026-05-07 02:26 2.32564 101.98760 40875 ft 500 kts 147°
2026-05-07 02:27 2.26668 102.02428 40878 ft 501 kts 148°
2026-05-07 02:27 2.22844 102.04714 40879 ft 501 kts 149°
2026-05-07 02:28 2.16554 102.09785 40883 ft 498 kts 130°
2026-05-07 02:28 2.13333 102.14528 40882 ft 496 kts 118°
2026-05-07 02:29 2.10061 102.20607 40882 ft 497 kts 116°
2026-05-07 02:29 2.06891 102.26745 40882 ft 497 kts 116°
2026-05-07 02:30 2.03696 102.32876 40881 ft 497 kts 117°
2026-05-07 02:30 2.00512 102.38916 40884 ft 485 kts 117°
2026-05-07 02:31 1.97385 102.44832 40543 ft 478 kts 117°
2026-05-07 02:31 1.95833 102.47758 40288 ft 477 kts 117°
2026-05-07 02:31 1.94264 102.50690 40059 ft 478 kts 117°
2026-05-07 02:32 1.92688 102.53625 39825 ft 479 kts 117°
2026-05-07 02:32 1.91113 102.56559 39581 ft 480 kts 117°
2026-05-07 02:32 1.89538 102.59496 39346 ft 480 kts 117°
2026-05-07 02:32 1.87968 102.62426 38988 ft 476 kts 117°
2026-05-07 02:33 1.86406 102.65345 38412 ft 475 kts 117°
2026-05-07 02:33 1.84849 102.68255 37727 ft 475 kts 117°
2026-05-07 02:33 1.83294 102.71164 37068 ft 475 kts 117°
2026-05-07 02:33 1.81736 102.74078 36398 ft 475 kts 117°
2026-05-07 02:34 1.80177 102.76994 35716 ft 476 kts 117°
2026-05-07 02:34 1.78618 102.79910 35013 ft 477 kts 117°
2026-05-07 02:34 1.77047 102.82847 34367 ft 478 kts 117°
2026-05-07 02:34 1.75486 102.85765 33826 ft 475 kts 117°
2026-05-07 02:35 1.73928 102.88677 33235 ft 473 kts 117°
2026-05-07 02:35 1.72407 102.91528 32689 ft 469 kts 117°
2026-05-07 02:35 1.70858 102.94434 32146 ft 466 kts 117°
2026-05-07 02:35 1.69341 102.97281 31624 ft 463 kts 117°
2026-05-07 02:36 1.67855 103.00068 31083 ft 460 kts 117°
2026-05-07 02:36 1.66351 103.02890 30581 ft 457 kts 117°
2026-05-07 02:36 1.64876 103.05656 30442 ft 444 kts 117°
2026-05-07 02:36 1.63426 103.08376 30285 ft 433 kts 117°
2026-05-07 02:37 1.61967 103.10916 30103 ft 423 kts 124°
2026-05-07 02:37 1.59969 103.13016 29916 ft 414 kts 142°
2026-05-07 02:37 1.57622 103.14655 29545 ft 410 kts 146°
2026-05-07 02:37 1.55239 103.16197 29097 ft 406 kts 146°
2026-05-07 02:38 1.52873 103.17728 28661 ft 404 kts 146°
2026-05-07 02:38 1.50497 103.19277 28226 ft 401 kts 145°
2026-05-07 02:38 1.48209 103.20778 27802 ft 398 kts 145°
2026-05-07 02:38 1.45903 103.22294 27374 ft 395 kts 145°
2026-05-07 02:39 1.43619 103.23798 26957 ft 392 kts 145°
2026-05-07 02:39 1.41348 103.25295 26566 ft 390 kts 145°
2026-05-07 02:39 1.39093 103.26783 26159 ft 387 kts 145°
2026-05-07 02:39 1.36848 103.28263 25751 ft 385 kts 145°
2026-05-07 02:40 1.34618 103.29735 25337 ft 383 kts 145°
2026-05-07 02:40 1.32407 103.31194 24951 ft 380 kts 145°
2026-05-07 02:40 1.30205 103.32647 24556 ft 378 kts 144°
2026-05-07 02:40 1.28018 103.34090 24154 ft 376 kts 144°
2026-05-07 02:41 1.25840 103.35527 23772 ft 374 kts 144°
2026-05-07 02:41 1.23679 103.36952 23385 ft 371 kts 144°
2026-05-07 02:41 1.21560 103.38350 22545 ft 361 kts 144°
2026-05-07 02:41 1.19480 103.39723 21797 ft 352 kts 144°
2026-05-07 02:42 1.17493 103.41032 21425 ft 334 kts 144°
2026-05-07 02:42 1.15578 103.42295 21051 ft 327 kts 144°
2026-05-07 02:42 1.13710 103.43528 20824 ft 314 kts 144°
2026-05-07 02:42 1.11960 103.44681 20712 ft 291 kts 144°
2026-05-07 02:43 1.10299 103.45777 20613 ft 283 kts 144°
2026-05-07 02:43 1.08664 103.46858 20457 ft 282 kts 144°
2026-05-07 02:43 1.07031 103.47944 20136 ft 280 kts 143°
2026-05-07 02:43 1.05586 103.49225 19811 ft 277 kts 126°
2026-05-07 02:44 1.04702 103.50902 19524 ft 272 kts 104°
2026-05-07 02:44 1.04516 103.52758 19243 ft 269 kts 85°
2026-05-07 02:44 1.04724 103.54614 18956 ft 269 kts 82°
2026-05-07 02:44 1.04991 103.56478 18680 ft 272 kts 82°
2026-05-07 02:45 1.05253 103.58343 18394 ft 271 kts 82°
2026-05-07 02:45 1.05507 103.60206 18097 ft 270 kts 82°
2026-05-07 02:45 1.05754 103.62054 17793 ft 268 kts 82°
2026-05-07 02:45 1.05997 103.63889 17508 ft 265 kts 82°
2026-05-07 02:46 1.06235 103.65705 17218 ft 262 kts 82°
2026-05-07 02:46 1.06448 103.67334 16982 ft 261 kts 82°
2026-05-07 02:46 1.06682 103.69124 16711 ft 260 kts 82°
2026-05-07 02:46 1.06915 103.70910 16438 ft 258 kts 82°
2026-05-07 02:47 1.07147 103.72688 16168 ft 257 kts 82°
2026-05-07 02:47 1.07374 103.74427 15907 ft 256 kts 82°
2026-05-07 02:47 1.07606 103.76209 15636 ft 254 kts 82°
2026-05-07 02:47 1.07831 103.77935 15371 ft 253 kts 82°
2026-05-07 02:48 1.08058 103.79675 15109 ft 252 kts 82°
2026-05-07 02:48 1.08284 103.81407 14849 ft 251 kts 82°
2026-05-07 02:48 1.08508 103.83129 14586 ft 249 kts 82°
2026-05-07 02:48 1.08731 103.84843 14323 ft 248 kts 82°
2026-05-07 02:49 1.08954 103.86548 14063 ft 247 kts 82°
2026-05-07 02:49 1.09175 103.88245 13795 ft 246 kts 82°
2026-05-07 02:49 1.09428 103.89929 13516 ft 245 kts 80°
2026-05-07 02:49 1.09743 103.91596 13246 ft 244 kts 79°
2026-05-07 02:50 1.10015 103.93019 13025 ft 243 kts 79°
2026-05-07 02:50 1.10327 103.94676 12773 ft 243 kts 79°
2026-05-07 02:50 1.10632 103.96335 12496 ft 242 kts 80°
2026-05-07 02:50 1.10934 103.97985 12237 ft 241 kts 80°
2026-05-07 02:51 1.11233 103.99631 11992 ft 241 kts 80°
2026-05-07 02:51 1.11531 104.01271 11808 ft 240 kts 80°
2026-05-07 02:51 1.11829 104.02915 11584 ft 240 kts 80°
2026-05-07 02:51 1.12125 104.04551 11335 ft 239 kts 80°
2026-05-07 02:52 1.12419 104.06180 11080 ft 238 kts 80°
2026-05-07 02:52 1.12712 104.07804 10825 ft 238 kts 80°
2026-05-07 02:52 1.13006 104.09428 10569 ft 237 kts 80°
2026-05-07 02:52 1.13302 104.11044 10317 ft 236 kts 79°
2026-05-07 02:53 1.13839 104.12589 10064 ft 237 kts 60°
2026-05-07 02:53 1.14985 104.13779 9822 ft 247 kts 33°
2026-05-07 02:53 1.16566 104.14559 9733 ft 260 kts 24°
2026-05-07 02:53 1.18236 104.15247 9470 ft 259 kts 24°
2026-05-07 02:54 1.19910 104.15934 9038 ft 262 kts 24°
2026-05-07 02:54 1.21598 104.16637 8680 ft 262 kts 24°
2026-05-07 02:54 1.23272 104.17342 8371 ft 259 kts 24°
2026-05-07 02:54 1.24922 104.18040 8097 ft 257 kts 24°
2026-05-07 02:55 1.26566 104.18738 7813 ft 256 kts 24°
2026-05-07 02:55 1.28203 104.19434 7529 ft 255 kts 24°
2026-05-07 02:55 1.29834 104.20129 7264 ft 255 kts 24°
2026-05-07 02:55 1.31458 104.20815 6983 ft 253 kts 23°
2026-05-07 02:56 1.33174 104.21196 6707 ft 254 kts 359°
2026-05-07 02:56 1.34920 104.20962 6436 ft 253 kts 348°
2026-05-07 02:56 1.36637 104.20579 6151 ft 252 kts 347°
2026-05-07 02:56 1.38348 104.20189 5874 ft 251 kts 347°
2026-05-07 02:57 1.40053 104.19809 5604 ft 250 kts 347°
2026-05-07 02:57 1.41750 104.19437 5339 ft 249 kts 347°
2026-05-07 02:57 1.43442 104.19069 5072 ft 248 kts 347°
2026-05-07 02:57 1.45127 104.18705 4808 ft 248 kts 347°
2026-05-07 02:58 1.46808 104.18342 4569 ft 245 kts 348°
2026-05-07 02:58 1.48438 104.17993 4466 ft 235 kts 348°
2026-05-07 02:58 1.50003 104.17642 4362 ft 226 kts 345°
2026-05-07 02:58 1.51326 104.16906 4200 ft 216 kts 311°
2026-05-07 02:59 1.51886 104.15571 4034 ft 208 kts 269°
2026-05-07 02:59 1.51691 104.14165 3999 ft 205 kts 255°
2026-05-07 02:59 1.51357 104.12778 3981 ft 205 kts 255°
2026-05-07 02:59 1.51024 104.11401 3887 ft 200 kts 255°
2026-05-07 03:00 1.50710 104.10057 3413 ft 203 kts 256°
2026-05-07 03:00 1.50392 104.08669 3080 ft 203 kts 256°
2026-05-07 03:00 1.50080 104.07291 3002 ft 206 kts 256°
2026-05-07 03:00 1.49760 104.05868 2960 ft 212 kts 256°
2026-05-07 03:01 1.49375 104.04489 2619 ft 208 kts 244°
2026-05-07 03:01 1.48473 104.03380 2420 ft 205 kts 215°
2026-05-07 03:01 1.47178 104.02810 2111 ft 202 kts 195°
2026-05-07 03:01 1.45899 104.02405 2027 ft 187 kts 198°
2026-05-07 03:02 1.44698 104.01919 1940 ft 183 kts 204°
2026-05-07 03:02 1.43534 104.01389 1647 ft 184 kts 202°
2026-05-07 03:02 1.42362 104.00902 1199 ft 182 kts 201°
2026-05-07 03:02 1.41190 104.00410 878 ft 183 kts 201°
2026-05-07 03:03 1.39983 103.99895 661 ft 199 kts 202°
2026-05-07 03:03 1.38683 103.99350 857 ft 228 kts 202°
2026-05-07 03:03 1.37111 103.98701 1365 ft 256 kts 201°
2026-05-07 03:03 1.35497 103.98038 2283 ft 243 kts 201°
2026-05-07 03:04 1.34010 103.97420 3167 ft 227 kts 201°
2026-05-07 03:04 1.32539 103.96812 3716 ft 232 kts 202°
2026-05-07 03:04 1.30977 103.96432 3967 ft 233 kts 180°
2026-05-07 03:04 1.29429 103.96829 4000 ft 233 kts 150°
2026-05-07 03:05 1.28251 103.97998 3981 ft 250 kts 121°
2026-05-07 03:05 1.27750 103.99680 3985 ft 259 kts 93°
2026-05-07 03:05 1.28095 104.01449 3997 ft 262 kts 67°
2026-05-07 03:05 1.28968 104.03044 4002 ft 263 kts 59°
2026-05-07 03:06 1.29949 104.04583 3983 ft 262 kts 58°
2026-05-07 03:06 1.31209 104.05889 4001 ft 264 kts 33°
2026-05-07 03:06 1.32862 104.06693 3985 ft 264 kts 21°
2026-05-07 03:06 1.34582 104.07338 3818 ft 264 kts 20°
2026-05-07 03:07 1.36286 104.07952 3646 ft 255 kts 20°
2026-05-07 03:07 1.37920 104.08535 3512 ft 244 kts 20°
2026-05-07 03:07 1.39486 104.09092 3409 ft 234 kts 20°
2026-05-07 03:07 1.40992 104.09629 3275 ft 225 kts 20°
2026-05-07 03:08 1.42452 104.10148 3072 ft 221 kts 20°
2026-05-07 03:08 1.43891 104.10658 2834 ft 219 kts 20°
2026-05-07 03:08 1.45333 104.11154 2571 ft 218 kts 17°
2026-05-07 03:08 1.46813 104.11318 2405 ft 212 kts 355°
2026-05-07 03:09 1.48155 104.10839 2292 ft 203 kts 320°
2026-05-07 03:09 1.48892 104.09699 2090 ft 195 kts 281°
2026-05-07 03:09 1.49042 104.08382 2012 ft 190 kts 271°
2026-05-07 03:09 1.49108 104.07071 2033 ft 188 kts 271°
2026-05-07 03:10 1.49183 104.05817 2010 ft 174 kts 272°
2026-05-07 03:10 1.49184 104.04630 1998 ft 169 kts 258°
2026-05-07 03:10 1.48547 104.03670 2017 ft 166 kts 222°
2026-05-07 03:10 1.47582 104.03059 2008 ft 166 kts 200°
2026-05-07 03:11 1.46498 104.02676 1882 ft 165 kts 199°
2026-05-07 03:11 1.45447 104.02227 1667 ft 162 kts 206°
2026-05-07 03:11 1.44454 104.01785 1465 ft 150 kts 201°
2026-05-07 03:11 1.43525 104.01401 1268 ft 140 kts 201°
2026-05-07 03:12 1.42659 104.01033 1083 ft 132 kts 201°
2026-05-07 03:12 1.41829 104.00679 933 ft 129 kts 201°
2026-05-07 03:12 1.40993 104.00323 743 ft 131 kts 201°
2026-05-07 03:12 1.40166 103.99957 545 ft 129 kts 202°
2026-05-07 03:13 1.39335 103.99619 371 ft 129 kts 201°
2026-05-07 03:13 1.38505 103.99267 201 ft 129 kts 200°
2026-05-07 03:13 1.37673 103.98918 115 ft 131 kts 203°
2026-05-07 03:13 1.36839 103.98565 39 ft 125 kts 202°
2026-05-07 03:14 1.36381 103.98371 39 ft 89 kts 204°
2026-05-07 03:14 1.36011 103.98214 37 ft 47 kts 203°
2026-05-07 03:14 1.35555 103.98120 40 ft 18 kts 173°
2026-05-07 03:15 1.35527 103.98133 40 ft 1 kts 130°
2026-05-07 03:15 1.35525 103.98143 40 ft 3 kts 103°
2026-05-07 03:15 1.35525 103.98190 39 ft 8 kts 73°
2026-05-07 03:15 1.35576 103.98229 39 ft 13 kts 26°
2026-05-07 03:16 1.35683 103.98274 39 ft 20 kts 23°
2026-05-07 03:16 1.35819 103.98332 39 ft 23 kts 22°
2026-05-07 03:16 1.35976 103.98397 39 ft 25 kts 22°
2026-05-07 03:16 1.36026 103.98418 39 ft 5 kts 22°
2026-05-07 03:17 1.36072 103.98438 39 ft 10 kts 26°
2026-05-07 03:17 1.36104 103.98493 39 ft 10 kts 91°
2026-05-07 03:17 1.36077 103.98563 39 ft 13 kts 117°
2026-05-07 03:17 1.36094 103.98637 39 ft 11 kts 41°
2026-05-07 03:18 1.36124 103.98672 39 ft 6 kts 61°
2026-05-07 03:18 1.36122 103.98705 39 ft 5 kts 104°
2026-05-07 03:18 1.36111 103.98736 39 ft 0 kts 112°
2026-05-07 03:18 1.36110 103.98738 39 ft 1 kts 112°
2026-05-07 03:19 1.36107 103.98745 39 ft 0 kts 112°